Year,Month,Day,Hour,Minute,Value (Times are PST for temperature in C)
2010,05,07,00,00,5.70
2010,05,07,00,01,5.70
2010,05,07,00,02,5.70
2010,05,07,00,03,5.70
2010,05,07,00,04,5.70
2010,05,07,00,05,5.70
2010,05,07,00,06,5.60
2010,05,07,00,07,5.60
2010,05,07,00,08,5.60
2010,05,07,00,09,5.60
2010,05,07,00,10,5.50
2010,05,07,00,11,5.50
2010,05,07,00,12,5.50
2010,05,07,00,13,5.40
2010,05,07,00,14,5.40
2010,05,07,00,15,5.30
2010,05,07,00,16,5.30
2010,05,07,00,17,5.30
2010,05,07,00,18,5.30
2010,05,07,00,19,5.30
2010,05,07,00,20,5.30
2010,05,07,00,21,5.10
2010,05,07,00,22,5.10
2010,05,07,00,23,5.10
2010,05,07,00,24,5.00
2010,05,07,00,25,4.90
2010,05,07,00,26,4.90
2010,05,07,00,27,4.90
2010,05,07,00,28,4.90
2010,05,07,00,29,4.90
2010,05,07,00,30,4.90
2010,05,07,00,31,4.90
2010,05,07,00,32,4.90
2010,05,07,00,33,4.90
2010,05,07,00,34,4.90
2010,05,07,00,35,4.90
2010,05,07,00,36,4.90
2010,05,07,00,37,4.90
2010,05,07,00,38,4.90
2010,05,07,00,39,4.90
2010,05,07,00,40,4.90
2010,05,07,00,41,4.90
2010,05,07,00,42,4.90
2010,05,07,00,43,5.00
2010,05,07,00,44,5.00
2010,05,07,00,45,4.90
2010,05,07,00,46,4.90
2010,05,07,00,47,4.90
2010,05,07,00,48,4.90
2010,05,07,00,49,4.90
2010,05,07,00,50,4.90
2010,05,07,00,51,4.90
2010,05,07,00,52,4.90
2010,05,07,00,53,4.90
2010,05,07,00,54,4.80
2010,05,07,00,55,4.80
2010,05,07,00,56,4.80
2010,05,07,00,57,4.70
2010,05,07,00,58,4.70
2010,05,07,00,59,4.80
2010,05,07,01,00,4.80
2010,05,07,01,01,4.90
2010,05,07,01,02,4.90
2010,05,07,01,03,4.90
2010,05,07,01,04,4.90
2010,05,07,01,05,4.80
2010,05,07,01,06,4.80
2010,05,07,01,07,4.80
2010,05,07,01,08,4.80
2010,05,07,01,09,4.80
2010,05,07,01,10,4.80
2010,05,07,01,11,4.80
2010,05,07,01,12,4.80
2010,05,07,01,13,4.80
2010,05,07,01,14,4.70
2010,05,07,01,15,4.70
2010,05,07,01,16,4.70
2010,05,07,01,17,4.70
2010,05,07,01,18,4.70
2010,05,07,01,19,4.70
2010,05,07,01,20,4.60
2010,05,07,01,21,4.60
2010,05,07,01,22,4.60
2010,05,07,01,23,4.60
2010,05,07,01,24,4.50
2010,05,07,01,25,4.50
2010,05,07,01,26,4.50
2010,05,07,01,27,4.50
2010,05,07,01,28,4.50
2010,05,07,01,29,4.50
2010,05,07,01,30,4.40
2010,05,07,01,31,4.40
2010,05,07,01,32,4.40
2010,05,07,01,33,4.40
2010,05,07,01,34,4.40
2010,05,07,01,35,4.30
2010,05,07,01,36,4.30
2010,05,07,01,37,4.30
2010,05,07,01,38,4.20
2010,05,07,01,39,4.20
2010,05,07,01,40,4.20
2010,05,07,01,41,4.30
2010,05,07,01,42,4.30
2010,05,07,01,43,4.30
2010,05,07,01,44,4.40
2010,05,07,01,45,4.40
2010,05,07,01,46,4.40
2010,05,07,01,47,4.40
2010,05,07,01,48,4.50
2010,05,07,01,49,4.40
2010,05,07,01,50,4.40
2010,05,07,01,51,4.40
2010,05,07,01,52,4.40
2010,05,07,01,53,4.40
2010,05,07,01,54,4.40
2010,05,07,01,55,4.30
2010,05,07,01,56,4.30
2010,05,07,01,57,4.20
2010,05,07,01,58,4.20
2010,05,07,01,59,4.20
2010,05,07,02,00,4.10
2010,05,07,02,01,4.10
2010,05,07,02,02,4.10
2010,05,07,02,03,4.10
2010,05,07,02,04,4.10
2010,05,07,02,05,4.10
2010,05,07,02,06,4.10
2010,05,07,02,07,4.10
2010,05,07,02,08,4.10
2010,05,07,02,09,4.10
2010,05,07,02,10,4.20
2010,05,07,02,11,4.20
2010,05,07,02,12,4.30
2010,05,07,02,13,4.40
2010,05,07,02,14,4.40
2010,05,07,02,15,4.50
2010,05,07,02,16,4.60
2010,05,07,02,17,4.60
2010,05,07,02,18,4.60
2010,05,07,02,19,4.60
2010,05,07,02,20,4.70
2010,05,07,02,21,4.70
2010,05,07,02,22,4.60
2010,05,07,02,23,4.60
2010,05,07,02,24,4.50
2010,05,07,02,25,4.50
2010,05,07,02,26,4.40
2010,05,07,02,27,4.40
2010,05,07,02,28,4.30
2010,05,07,02,29,4.30
2010,05,07,02,30,4.30
2010,05,07,02,31,4.30
2010,05,07,02,32,4.30
2010,05,07,02,33,4.30
2010,05,07,02,34,4.30
2010,05,07,02,35,4.30
2010,05,07,02,36,4.30
2010,05,07,02,37,4.30
2010,05,07,02,38,4.40
2010,05,07,02,39,4.40
2010,05,07,02,40,4.50
2010,05,07,02,41,4.50
2010,05,07,02,42,4.50
2010,05,07,02,43,4.50
2010,05,07,02,44,4.50
2010,05,07,02,45,4.60
2010,05,07,02,46,4.70
2010,05,07,02,47,4.80
2010,05,07,02,48,4.80
2010,05,07,02,49,4.90
2010,05,07,02,50,4.90
2010,05,07,02,51,4.90
2010,05,07,02,52,4.90
2010,05,07,02,53,4.90
2010,05,07,02,54,5.00
2010,05,07,02,55,5.10
2010,05,07,02,56,5.10
2010,05,07,02,57,5.10
2010,05,07,02,58,5.10
2010,05,07,02,59,5.10
2010,05,07,03,00,5.10
2010,05,07,03,01,5.10
2010,05,07,03,02,5.10
2010,05,07,03,03,5.10
2010,05,07,03,04,5.10
2010,05,07,03,05,5.10
2010,05,07,03,06,5.10
2010,05,07,03,07,5.10
2010,05,07,03,08,5.10
2010,05,07,03,09,5.10
2010,05,07,03,10,5.00
2010,05,07,03,11,5.00
2010,05,07,03,12,4.90
2010,05,07,03,13,4.90
2010,05,07,03,14,4.90
2010,05,07,03,15,4.90
2010,05,07,03,16,4.90
2010,05,07,03,17,4.90
2010,05,07,03,18,4.90
2010,05,07,03,19,4.90
2010,05,07,03,20,4.90
2010,05,07,03,21,4.90
2010,05,07,03,22,4.90
2010,05,07,03,23,4.90
2010,05,07,03,24,4.90
2010,05,07,03,25,4.90
2010,05,07,03,26,4.90
2010,05,07,03,27,4.80
2010,05,07,03,28,4.80
2010,05,07,03,29,4.80
2010,05,07,03,30,4.80
2010,05,07,03,31,4.80
2010,05,07,03,32,4.80
2010,05,07,03,33,4.80
2010,05,07,03,34,4.80
2010,05,07,03,35,4.80
2010,05,07,03,36,4.80
2010,05,07,03,37,4.80
2010,05,07,03,38,4.80
2010,05,07,03,39,4.80
2010,05,07,03,40,4.80
2010,05,07,03,41,4.80
2010,05,07,03,42,4.80
2010,05,07,03,43,4.80
2010,05,07,03,44,4.80
2010,05,07,03,45,4.80
2010,05,07,03,46,4.80
2010,05,07,03,47,4.80
2010,05,07,03,48,4.80
2010,05,07,03,49,4.80
2010,05,07,03,50,4.80
2010,05,07,03,51,4.80
2010,05,07,03,52,4.80
2010,05,07,03,53,4.80
2010,05,07,03,54,4.80
2010,05,07,03,55,4.80
2010,05,07,03,56,4.70
2010,05,07,03,57,4.70
2010,05,07,03,58,4.70
2010,05,07,03,59,4.70
2010,05,07,04,00,4.70
2010,05,07,04,01,4.70
2010,05,07,04,02,4.60
2010,05,07,04,03,4.60
2010,05,07,04,04,4.60
2010,05,07,04,05,4.60
2010,05,07,04,06,4.60
2010,05,07,04,07,4.60
2010,05,07,04,08,4.60
2010,05,07,04,09,4.60
2010,05,07,04,10,4.60
2010,05,07,04,11,4.60
2010,05,07,04,12,4.60
2010,05,07,04,13,4.60
2010,05,07,04,14,4.60
2010,05,07,04,15,4.60
2010,05,07,04,16,4.60
2010,05,07,04,17,4.60
2010,05,07,04,18,4.60
2010,05,07,04,19,4.60
2010,05,07,04,20,4.60
2010,05,07,04,21,4.60
2010,05,07,04,22,4.60
2010,05,07,04,23,4.60
2010,05,07,04,24,4.60
2010,05,07,04,25,4.60
2010,05,07,04,26,4.50
2010,05,07,04,27,4.50
2010,05,07,04,28,4.40
2010,05,07,04,29,4.40
2010,05,07,04,30,4.30
2010,05,07,04,31,4.30
2010,05,07,04,32,4.30
2010,05,07,04,33,4.20
2010,05,07,04,34,4.20
2010,05,07,04,35,4.20
2010,05,07,04,36,4.20
2010,05,07,04,37,4.20
2010,05,07,04,38,4.20
2010,05,07,04,39,4.20
2010,05,07,04,40,4.20
2010,05,07,04,41,4.20
2010,05,07,04,42,4.20
2010,05,07,04,43,4.20
2010,05,07,04,44,4.20
2010,05,07,04,45,4.20
2010,05,07,04,46,4.20
2010,05,07,04,47,4.20
2010,05,07,04,48,4.20
2010,05,07,04,49,4.20
2010,05,07,04,50,4.20
2010,05,07,04,51,4.00
2010,05,07,04,52,3.90
2010,05,07,04,53,3.70
2010,05,07,04,54,3.60
2010,05,07,04,55,3.40
2010,05,07,04,56,3.30
2010,05,07,04,57,3.20
2010,05,07,04,58,3.10
2010,05,07,04,59,3.00
2010,05,07,05,00,2.90
2010,05,07,05,01,2.90
2010,05,07,05,02,2.90
2010,05,07,05,03,2.90
2010,05,07,05,04,2.90
2010,05,07,05,05,2.80
2010,05,07,05,06,2.80
2010,05,07,05,07,2.80
2010,05,07,05,08,2.80
2010,05,07,05,09,2.80
2010,05,07,05,10,2.90
2010,05,07,05,11,2.90
2010,05,07,05,12,3.10
2010,05,07,05,13,3.10
2010,05,07,05,14,3.20
2010,05,07,05,15,3.30
2010,05,07,05,16,3.30
2010,05,07,05,17,3.40
2010,05,07,05,18,3.50
2010,05,07,05,19,3.50
2010,05,07,05,20,3.60
2010,05,07,05,21,3.70
2010,05,07,05,22,3.80
2010,05,07,05,23,3.90
2010,05,07,05,24,4.00
2010,05,07,05,25,4.00
2010,05,07,05,26,4.00
2010,05,07,05,27,4.00
2010,05,07,05,28,4.00
2010,05,07,05,29,4.00
2010,05,07,05,30,4.00
2010,05,07,05,31,4.00
2010,05,07,05,32,4.00
2010,05,07,05,33,4.10
2010,05,07,05,34,4.10
2010,05,07,05,35,4.20
2010,05,07,05,36,4.20
2010,05,07,05,37,4.20
2010,05,07,05,38,4.20
2010,05,07,05,39,4.20
2010,05,07,05,40,4.10
2010,05,07,05,41,4.10
2010,05,07,05,42,4.10
2010,05,07,05,43,4.10
2010,05,07,05,44,4.20
2010,05,07,05,45,4.20
2010,05,07,05,46,4.20
2010,05,07,05,47,4.20
2010,05,07,05,48,4.30
2010,05,07,05,49,4.40
2010,05,07,05,50,4.40
2010,05,07,05,51,4.50
2010,05,07,05,52,4.60
2010,05,07,05,53,4.60
2010,05,07,05,54,4.60
2010,05,07,05,55,4.60
2010,05,07,05,56,4.60
2010,05,07,05,57,4.60
2010,05,07,05,58,4.70
2010,05,07,05,59,4.70
2010,05,07,06,00,4.70
2010,05,07,06,01,4.70
2010,05,07,06,02,4.70
2010,05,07,06,03,4.80
2010,05,07,06,04,4.80
2010,05,07,06,05,4.90
2010,05,07,06,06,4.90
2010,05,07,06,07,5.00
2010,05,07,06,08,5.10
2010,05,07,06,09,5.10
2010,05,07,06,10,5.20
2010,05,07,06,11,5.20
2010,05,07,06,12,5.30
2010,05,07,06,13,5.30
2010,05,07,06,14,5.30
2010,05,07,06,15,5.30
2010,05,07,06,16,5.40
2010,05,07,06,17,5.40
2010,05,07,06,18,5.50
2010,05,07,06,19,5.60
2010,05,07,06,20,5.60
2010,05,07,06,21,5.70
2010,05,07,06,22,5.70
2010,05,07,06,23,5.80
2010,05,07,06,24,5.80
2010,05,07,06,25,5.80
2010,05,07,06,26,5.90
2010,05,07,06,27,5.90
2010,05,07,06,28,5.90
2010,05,07,06,29,5.90
2010,05,07,06,30,5.90
2010,05,07,06,31,6.00
2010,05,07,06,32,6.00
2010,05,07,06,33,6.10
2010,05,07,06,34,6.10
2010,05,07,06,35,6.20
2010,05,07,06,36,6.20
2010,05,07,06,37,6.20
2010,05,07,06,38,6.30
2010,05,07,06,39,6.30
2010,05,07,06,40,6.30
2010,05,07,06,41,6.40
2010,05,07,06,42,6.40
2010,05,07,06,43,6.40
2010,05,07,06,44,6.40
2010,05,07,06,45,6.40
2010,05,07,06,46,6.50
2010,05,07,06,47,6.60
2010,05,07,06,48,6.60
2010,05,07,06,49,6.60
2010,05,07,06,50,6.60
2010,05,07,06,51,6.70
2010,05,07,06,52,6.70
2010,05,07,06,53,6.80
2010,05,07,06,54,6.80
2010,05,07,06,55,6.80
2010,05,07,06,56,6.90
2010,05,07,06,57,6.90
2010,05,07,06,58,7.00
2010,05,07,06,59,7.00
2010,05,07,07,00,7.10
2010,05,07,07,01,7.10
2010,05,07,07,02,7.10
2010,05,07,07,03,7.20
2010,05,07,07,04,7.30
2010,05,07,07,05,7.30
2010,05,07,07,06,7.30
2010,05,07,07,07,7.40
2010,05,07,07,08,7.50
2010,05,07,07,09,7.60
2010,05,07,07,10,7.60
2010,05,07,07,11,7.70
2010,05,07,07,12,7.80
2010,05,07,07,13,7.80
2010,05,07,07,14,7.80
2010,05,07,07,15,7.90
2010,05,07,07,16,7.90
2010,05,07,07,17,8.00
2010,05,07,07,18,8.10
2010,05,07,07,19,8.10
2010,05,07,07,20,8.20
2010,05,07,07,21,8.20
2010,05,07,07,22,8.20
2010,05,07,07,23,8.20
2010,05,07,07,24,8.30
2010,05,07,07,25,8.30
2010,05,07,07,26,8.30
2010,05,07,07,27,8.40
2010,05,07,07,28,8.40
2010,05,07,07,29,8.50
2010,05,07,07,30,8.60
2010,05,07,07,31,8.70
2010,05,07,07,32,8.70
2010,05,07,07,33,8.60
2010,05,07,07,34,8.70
2010,05,07,07,35,8.70
2010,05,07,07,36,8.80
2010,05,07,07,37,8.90
2010,05,07,07,38,9.00
2010,05,07,07,39,9.00
2010,05,07,07,40,9.00
2010,05,07,07,41,8.90
2010,05,07,07,42,8.90
2010,05,07,07,43,8.90
2010,05,07,07,44,9.00
2010,05,07,07,45,9.00
2010,05,07,07,46,9.10
2010,05,07,07,47,9.10
2010,05,07,07,48,9.20
2010,05,07,07,49,9.30
2010,05,07,07,50,9.30
2010,05,07,07,51,9.30
2010,05,07,07,52,9.30
2010,05,07,07,53,9.20
2010,05,07,07,54,9.20
2010,05,07,07,55,9.20
2010,05,07,07,56,9.30
2010,05,07,07,57,9.30
2010,05,07,07,58,9.20
2010,05,07,07,59,9.20
2010,05,07,08,00,9.20
2010,05,07,08,01,9.30
2010,05,07,08,02,9.30
2010,05,07,08,03,9.40
2010,05,07,08,04,9.40
2010,05,07,08,05,9.50
2010,05,07,08,06,9.40
2010,05,07,08,07,9.50
2010,05,07,08,08,9.50
2010,05,07,08,09,9.40
2010,05,07,08,10,9.40
2010,05,07,08,11,9.40
2010,05,07,08,12,9.40
2010,05,07,08,13,9.40
2010,05,07,08,14,9.50
2010,05,07,08,15,9.60
2010,05,07,08,16,9.60
2010,05,07,08,17,9.70
2010,05,07,08,18,9.70
2010,05,07,08,19,9.70
2010,05,07,08,20,9.70
2010,05,07,08,21,9.70
2010,05,07,08,22,9.70
2010,05,07,08,23,9.70
2010,05,07,08,24,9.70
2010,05,07,08,25,9.70
2010,05,07,08,26,9.80
2010,05,07,08,27,9.90
2010,05,07,08,28,10.00
2010,05,07,08,29,10.10
2010,05,07,08,30,10.20
2010,05,07,08,31,10.20
2010,05,07,08,32,10.20
2010,05,07,08,33,10.20
2010,05,07,08,34,10.20
2010,05,07,08,35,10.10
2010,05,07,08,36,10.10
2010,05,07,08,37,10.10
2010,05,07,08,38,10.20
2010,05,07,08,39,10.30
2010,05,07,08,40,10.40
2010,05,07,08,41,10.50
2010,05,07,08,42,10.60
2010,05,07,08,43,10.60
2010,05,07,08,44,10.60
2010,05,07,08,45,10.50
2010,05,07,08,46,10.50
2010,05,07,08,47,10.60
2010,05,07,08,48,10.60
2010,05,07,08,49,10.60
2010,05,07,08,50,10.70
2010,05,07,08,51,10.80
2010,05,07,08,52,10.90
2010,05,07,08,53,10.90
2010,05,07,08,54,10.90
2010,05,07,08,55,10.80
2010,05,07,08,56,10.70
2010,05,07,08,57,10.80
2010,05,07,08,58,10.90
2010,05,07,08,59,11.00
2010,05,07,09,00,11.10
2010,05,07,09,01,11.00
2010,05,07,09,02,10.90
2010,05,07,09,03,10.90
2010,05,07,09,04,10.90
2010,05,07,09,05,10.90
2010,05,07,09,06,10.90
2010,05,07,09,07,10.80
2010,05,07,09,08,10.80
2010,05,07,09,09,10.80
2010,05,07,09,10,10.70
2010,05,07,09,11,10.80
2010,05,07,09,12,10.70
2010,05,07,09,13,10.70
2010,05,07,09,14,10.80
2010,05,07,09,15,10.80
2010,05,07,09,16,10.90
2010,05,07,09,17,10.90
2010,05,07,09,18,10.80
2010,05,07,09,19,10.80
2010,05,07,09,20,11.00
2010,05,07,09,21,11.20
2010,05,07,09,22,11.30
2010,05,07,09,23,11.30
2010,05,07,09,24,11.40
2010,05,07,09,25,11.40
2010,05,07,09,26,11.50
2010,05,07,09,27,11.50
2010,05,07,09,28,11.70
2010,05,07,09,29,11.80
2010,05,07,09,30,11.70
2010,05,07,09,31,11.80
2010,05,07,09,32,11.80
2010,05,07,09,33,11.80
2010,05,07,09,34,11.80
2010,05,07,09,35,11.80
2010,05,07,09,36,11.90
2010,05,07,09,37,11.90
2010,05,07,09,38,11.90
2010,05,07,09,39,11.90
2010,05,07,09,40,11.90
2010,05,07,09,41,12.00
2010,05,07,09,42,11.80
2010,05,07,09,43,11.90
2010,05,07,09,44,12.00
2010,05,07,09,45,12.10
2010,05,07,09,46,12.20
2010,05,07,09,47,12.20
2010,05,07,09,48,12.30
2010,05,07,09,49,12.40
2010,05,07,09,50,12.50
2010,05,07,09,51,12.60
2010,05,07,09,52,12.70
2010,05,07,09,53,12.70
2010,05,07,09,54,12.80
2010,05,07,09,55,12.80
2010,05,07,09,56,12.80
2010,05,07,09,57,12.70
2010,05,07,09,58,12.50
2010,05,07,09,59,12.50
2010,05,07,10,00,12.40
2010,05,07,10,01,12.30
2010,05,07,10,02,12.30
2010,05,07,10,03,12.40
2010,05,07,10,04,12.40
2010,05,07,10,05,12.30
2010,05,07,10,06,12.50
2010,05,07,10,07,12.50
2010,05,07,10,08,12.50
2010,05,07,10,09,12.60
2010,05,07,10,10,12.70
2010,05,07,10,11,12.70
2010,05,07,10,12,12.60
2010,05,07,10,13,12.70
2010,05,07,10,14,12.80
2010,05,07,10,15,12.80
2010,05,07,10,16,12.80
2010,05,07,10,17,12.80
2010,05,07,10,18,12.80
2010,05,07,10,19,12.80
2010,05,07,10,20,12.70
2010,05,07,10,21,12.70
2010,05,07,10,22,12.50
2010,05,07,10,23,12.30
2010,05,07,10,24,12.20
2010,05,07,10,25,12.10
2010,05,07,10,26,12.00
2010,05,07,10,27,12.00
2010,05,07,10,28,12.10
2010,05,07,10,29,12.10
2010,05,07,10,30,12.20
2010,05,07,10,31,12.10
2010,05,07,10,32,12.20
2010,05,07,10,33,12.20
2010,05,07,10,34,12.20
2010,05,07,10,35,12.30
2010,05,07,10,36,12.30
2010,05,07,10,37,12.20
2010,05,07,10,38,12.30
2010,05,07,10,39,12.40
2010,05,07,10,40,12.40
2010,05,07,10,41,12.30
2010,05,07,10,42,12.50
2010,05,07,10,43,12.50
2010,05,07,10,44,12.50
2010,05,07,10,45,12.40
2010,05,07,10,46,12.50
2010,05,07,10,47,12.40
2010,05,07,10,48,12.30
2010,05,07,10,49,12.40
2010,05,07,10,50,12.60
2010,05,07,10,51,12.60
2010,05,07,10,52,12.60
2010,05,07,10,53,12.60
2010,05,07,10,54,12.70
2010,05,07,10,55,12.80
2010,05,07,10,56,12.70
2010,05,07,10,57,12.60
2010,05,07,10,58,12.60
2010,05,07,10,59,12.60
2010,05,07,11,00,12.70
2010,05,07,11,01,12.90
2010,05,07,11,02,13.00
2010,05,07,11,03,13.10
2010,05,07,11,04,13.30
2010,05,07,11,05,13.20
2010,05,07,11,06,13.10
2010,05,07,11,07,13.10
2010,05,07,11,08,13.10
2010,05,07,11,09,13.00
2010,05,07,11,10,12.80
2010,05,07,11,11,12.70
2010,05,07,11,12,12.60
2010,05,07,11,13,12.50
2010,05,07,11,14,12.60
2010,05,07,11,15,12.80
2010,05,07,11,16,12.80
2010,05,07,11,17,12.80
2010,05,07,11,18,12.80
2010,05,07,11,19,12.60
2010,05,07,11,20,12.80
2010,05,07,11,21,12.90
2010,05,07,11,22,12.90
2010,05,07,11,23,12.90
2010,05,07,11,24,13.10
2010,05,07,11,25,13.10
2010,05,07,11,26,13.20
2010,05,07,11,27,13.10
2010,05,07,11,28,13.10
2010,05,07,11,29,13.20
2010,05,07,11,30,13.30
2010,05,07,11,31,13.40
2010,05,07,11,32,13.60
2010,05,07,11,33,13.40
2010,05,07,11,34,13.40
2010,05,07,11,35,13.40
2010,05,07,11,36,13.40
2010,05,07,11,37,13.40
2010,05,07,11,38,13.50
2010,05,07,11,39,13.60
2010,05,07,11,40,13.70
2010,05,07,11,41,13.70
2010,05,07,11,42,13.70
2010,05,07,11,43,13.70
2010,05,07,11,44,13.70
2010,05,07,11,45,13.80
2010,05,07,11,46,13.80
2010,05,07,11,47,13.80
2010,05,07,11,48,13.60
2010,05,07,11,49,13.40
2010,05,07,11,50,13.50
2010,05,07,11,51,13.60
2010,05,07,11,52,13.80
2010,05,07,11,53,13.90
2010,05,07,11,54,13.70
2010,05,07,11,55,13.80
2010,05,07,11,56,13.80
2010,05,07,11,57,13.90
2010,05,07,11,58,14.00
2010,05,07,11,59,14.00
2010,05,07,12,00,14.00
2010,05,07,12,01,13.90
2010,05,07,12,02,13.90
2010,05,07,12,03,14.00
2010,05,07,12,04,14.00
2010,05,07,12,05,14.00
2010,05,07,12,06,14.00
2010,05,07,12,07,14.10
2010,05,07,12,08,14.10
2010,05,07,12,09,14.00
2010,05,07,12,10,14.00
2010,05,07,12,11,14.10
2010,05,07,12,12,14.20
2010,05,07,12,13,14.10
2010,05,07,12,14,14.00
2010,05,07,12,15,13.80
2010,05,07,12,16,13.70
2010,05,07,12,17,13.70
2010,05,07,12,18,13.80
2010,05,07,12,19,14.00
2010,05,07,12,20,14.10
2010,05,07,12,21,13.90
2010,05,07,12,22,13.90
2010,05,07,12,23,13.90
2010,05,07,12,24,14.00
2010,05,07,12,25,14.00
2010,05,07,12,26,14.10
2010,05,07,12,27,14.20
2010,05,07,12,28,14.40
2010,05,07,12,29,14.40
2010,05,07,12,30,14.50
2010,05,07,12,31,14.40
2010,05,07,12,32,14.20
2010,05,07,12,33,14.30
2010,05,07,12,34,14.30
2010,05,07,12,35,14.40
2010,05,07,12,36,14.30
2010,05,07,12,37,14.30
2010,05,07,12,38,14.20
2010,05,07,12,39,14.20
2010,05,07,12,40,14.20
2010,05,07,12,41,14.40
2010,05,07,12,42,14.50
2010,05,07,12,43,14.60
2010,05,07,12,44,14.50
2010,05,07,12,45,14.20
2010,05,07,12,46,14.20
2010,05,07,12,47,14.30
2010,05,07,12,48,14.40
2010,05,07,12,49,14.50
2010,05,07,12,50,14.50
2010,05,07,12,51,14.50
2010,05,07,12,52,14.60
2010,05,07,12,53,14.60
2010,05,07,12,54,14.70
2010,05,07,12,55,14.60
2010,05,07,12,56,14.40
2010,05,07,12,57,14.40
2010,05,07,12,58,14.40
2010,05,07,12,59,14.30
2010,05,07,13,00,14.30
2010,05,07,13,01,14.20
2010,05,07,13,02,14.40
2010,05,07,13,03,14.50
2010,05,07,13,04,14.60
2010,05,07,13,05,14.80
2010,05,07,13,06,14.80
2010,05,07,13,07,14.80
2010,05,07,13,08,14.70
2010,05,07,13,09,14.90
2010,05,07,13,10,14.90
2010,05,07,13,11,14.80
2010,05,07,13,12,14.70
2010,05,07,13,13,14.50
2010,05,07,13,14,14.40
2010,05,07,13,15,14.40
2010,05,07,13,16,14.50
2010,05,07,13,17,14.50
2010,05,07,13,18,14.50
2010,05,07,13,19,14.50
2010,05,07,13,20,14.50
2010,05,07,13,21,14.50
2010,05,07,13,22,14.70
2010,05,07,13,23,14.80
2010,05,07,13,24,15.00
2010,05,07,13,25,15.10
2010,05,07,13,26,15.20
2010,05,07,13,27,15.00
2010,05,07,13,28,15.10
2010,05,07,13,29,15.30
2010,05,07,13,30,15.30
2010,05,07,13,31,15.30
2010,05,07,13,32,15.30
2010,05,07,13,33,15.30
2010,05,07,13,34,15.30
2010,05,07,13,35,15.20
2010,05,07,13,36,15.10
2010,05,07,13,37,15.10
2010,05,07,13,38,15.00
2010,05,07,13,39,14.90
2010,05,07,13,40,14.80
2010,05,07,13,41,14.90
2010,05,07,13,42,15.20
2010,05,07,13,43,15.40
2010,05,07,13,44,15.50
2010,05,07,13,45,15.50
2010,05,07,13,46,15.50
2010,05,07,13,47,15.60
2010,05,07,13,48,15.60
2010,05,07,13,49,15.40
2010,05,07,13,50,15.30
2010,05,07,13,51,15.50
2010,05,07,13,52,15.60
2010,05,07,13,53,15.50
2010,05,07,13,54,15.40
2010,05,07,13,55,15.30
2010,05,07,13,56,15.40
2010,05,07,13,57,15.50
2010,05,07,13,58,15.40
2010,05,07,13,59,15.30
2010,05,07,14,00,15.30
2010,05,07,14,01,15.30
2010,05,07,14,02,15.30
2010,05,07,14,03,15.30
2010,05,07,14,04,15.20
2010,05,07,14,05,15.20
2010,05,07,14,06,15.00
2010,05,07,14,07,15.10
2010,05,07,14,08,15.10
2010,05,07,14,09,15.20
2010,05,07,14,10,15.30
2010,05,07,14,11,15.30
2010,05,07,14,12,15.40
2010,05,07,14,13,15.50
2010,05,07,14,14,15.40
2010,05,07,14,15,15.30
2010,05,07,14,16,15.30
2010,05,07,14,17,15.30
2010,05,07,14,18,15.30
2010,05,07,14,19,15.20
2010,05,07,14,20,15.20
2010,05,07,14,21,15.20
2010,05,07,14,22,15.30
2010,05,07,14,23,15.40
2010,05,07,14,24,15.30
2010,05,07,14,25,15.30
2010,05,07,14,26,15.30
2010,05,07,14,27,15.40
2010,05,07,14,28,15.50
2010,05,07,14,29,15.40
2010,05,07,14,30,15.40
2010,05,07,14,31,15.40
2010,05,07,14,32,15.30
2010,05,07,14,33,15.30
2010,05,07,14,34,15.30
2010,05,07,14,35,15.30
2010,05,07,14,36,15.30
2010,05,07,14,37,15.30
2010,05,07,14,38,15.30
2010,05,07,14,39,15.10
2010,05,07,14,40,15.10
2010,05,07,14,41,15.30
2010,05,07,14,42,15.30
2010,05,07,14,43,15.30
2010,05,07,14,44,15.30
2010,05,07,14,45,15.40
2010,05,07,14,46,15.50
2010,05,07,14,47,15.60
2010,05,07,14,48,15.80
2010,05,07,14,49,16.00
2010,05,07,14,50,16.10
2010,05,07,14,51,16.00
2010,05,07,14,52,15.90
2010,05,07,14,53,16.00
2010,05,07,14,54,16.10
2010,05,07,14,55,16.10
2010,05,07,14,56,16.20
2010,05,07,14,57,16.10
2010,05,07,14,58,15.90
2010,05,07,14,59,15.80
2010,05,07,15,00,15.80
2010,05,07,15,01,15.80
2010,05,07,15,02,15.80
2010,05,07,15,03,15.90
2010,05,07,15,04,16.00
2010,05,07,15,05,16.10
2010,05,07,15,06,16.20
2010,05,07,15,07,16.20
2010,05,07,15,08,16.30
2010,05,07,15,09,16.30
2010,05,07,15,10,16.20
2010,05,07,15,11,16.20
2010,05,07,15,12,16.30
2010,05,07,15,13,16.20
2010,05,07,15,14,16.20
2010,05,07,15,15,16.10
2010,05,07,15,16,16.10
2010,05,07,15,17,16.10
2010,05,07,15,18,16.10
2010,05,07,15,19,16.30
2010,05,07,15,20,16.30
2010,05,07,15,21,16.30
2010,05,07,15,22,16.40
2010,05,07,15,23,16.40
2010,05,07,15,24,16.40
2010,05,07,15,25,16.40
2010,05,07,15,26,16.40
2010,05,07,15,27,16.40
2010,05,07,15,28,16.30
2010,05,07,15,29,16.30
2010,05,07,15,30,16.20
2010,05,07,15,31,16.30
2010,05,07,15,32,16.40
2010,05,07,15,33,16.60
2010,05,07,15,34,16.50
2010,05,07,15,35,16.40
2010,05,07,15,36,16.40
2010,05,07,15,37,16.40
2010,05,07,15,38,16.40
2010,05,07,15,39,16.40
2010,05,07,15,40,16.60
2010,05,07,15,41,16.50
2010,05,07,15,42,16.20
2010,05,07,15,43,16.00
2010,05,07,15,44,15.80
2010,05,07,15,45,15.90
2010,05,07,15,46,15.90
2010,05,07,15,47,15.80
2010,05,07,15,48,15.80
2010,05,07,15,49,15.90
2010,05,07,15,50,16.10
2010,05,07,15,51,16.30
2010,05,07,15,52,16.30
2010,05,07,15,53,16.40
2010,05,07,15,54,16.40
2010,05,07,15,55,16.40
2010,05,07,15,56,16.40
2010,05,07,15,57,16.40
2010,05,07,15,58,16.40
2010,05,07,15,59,16.30
2010,05,07,16,00,16.20
2010,05,07,16,01,16.10
2010,05,07,16,02,16.20
2010,05,07,16,03,16.30
2010,05,07,16,04,16.40
2010,05,07,16,05,16.40
2010,05,07,16,06,16.30
2010,05,07,16,07,16.30
2010,05,07,16,08,16.30
2010,05,07,16,09,16.40
2010,05,07,16,10,16.40
2010,05,07,16,11,16.40
2010,05,07,16,12,16.30
2010,05,07,16,13,16.20
2010,05,07,16,14,16.30
2010,05,07,16,15,16.40
2010,05,07,16,16,16.50
2010,05,07,16,17,16.60
2010,05,07,16,18,16.80
2010,05,07,16,19,16.80
2010,05,07,16,20,16.60
2010,05,07,16,21,16.60
2010,05,07,16,22,16.60
2010,05,07,16,23,16.60
2010,05,07,16,24,16.70
2010,05,07,16,25,16.50
2010,05,07,16,26,16.40
2010,05,07,16,27,16.50
2010,05,07,16,28,16.60
2010,05,07,16,29,16.40
2010,05,07,16,30,16.40
2010,05,07,16,31,16.40
2010,05,07,16,32,16.30
2010,05,07,16,33,16.20
2010,05,07,16,34,16.10
2010,05,07,16,35,16.10
2010,05,07,16,36,16.10
2010,05,07,16,37,16.10
2010,05,07,16,38,16.20
2010,05,07,16,39,16.20
2010,05,07,16,40,16.10
2010,05,07,16,41,16.10
2010,05,07,16,42,16.20
2010,05,07,16,43,16.20
2010,05,07,16,44,16.20
2010,05,07,16,45,16.00
2010,05,07,16,46,15.90
2010,05,07,16,47,15.90
2010,05,07,16,48,16.10
2010,05,07,16,49,16.20
2010,05,07,16,50,16.20
2010,05,07,16,51,16.20
2010,05,07,16,52,16.20
2010,05,07,16,53,16.10
2010,05,07,16,54,16.00
2010,05,07,16,55,15.90
2010,05,07,16,56,15.90
2010,05,07,16,57,15.80
2010,05,07,16,58,15.80
2010,05,07,16,59,15.70
2010,05,07,17,00,15.50
2010,05,07,17,01,15.50
2010,05,07,17,02,15.60
2010,05,07,17,03,15.60
2010,05,07,17,04,15.60
2010,05,07,17,05,15.60
2010,05,07,17,06,15.50
2010,05,07,17,07,15.40
2010,05,07,17,08,15.30
2010,05,07,17,09,15.40
2010,05,07,17,10,15.40
2010,05,07,17,11,15.40
2010,05,07,17,12,15.40
2010,05,07,17,13,15.30
2010,05,07,17,14,15.30
2010,05,07,17,15,15.30
2010,05,07,17,16,15.30
2010,05,07,17,17,15.30
2010,05,07,17,18,15.30
2010,05,07,17,19,15.30
2010,05,07,17,20,15.30
2010,05,07,17,21,15.40
2010,05,07,17,22,15.40
2010,05,07,17,23,15.40
2010,05,07,17,24,15.30
2010,05,07,17,25,15.30
2010,05,07,17,26,15.30
2010,05,07,17,27,15.30
2010,05,07,17,28,15.30
2010,05,07,17,29,15.40
2010,05,07,17,30,15.30
2010,05,07,17,31,15.30
2010,05,07,17,32,15.30
2010,05,07,17,33,15.20
2010,05,07,17,34,15.20
2010,05,07,17,35,15.30
2010,05,07,17,36,15.30
2010,05,07,17,37,15.30
2010,05,07,17,38,15.20
2010,05,07,17,39,15.20
2010,05,07,17,40,15.20
2010,05,07,17,41,15.20